Wind_Speed
17 14 16 16 16 16 15 14 13 12 11 10 10 9 9 8 9 9 9 10 11 11 11 11 11 11 11 11 11 12 12 12 11 10 8 7 7 8 6 5 5 5 5 5 5 5 5 4 4 5 4 4 4 4 4 4 5 6 8 9 10 10 10 9 9 9 9 10 10 10 11 10 9 9 9 9 9 8 8 8 7 6 6 5 4 4
10 11 14 15 13 13 13 13 13 11 10 9 9 9 9 9 9 9 8 9 10 10 10 10 11 11 11 11 11 12 12 11 11 11 9 8 8 9 8 5 5 5 5 5 5 5 4 4 4 5 5 5 5 5 4 4 4 6 8 9 10 10 10 9 9 9 9 9 10 10 10 8 8 9 8 8 7 7 7 7 6 5 4 4 4 4
11 14 15 15 13 12 11 11 11 10 10 10 10 9 9 9 9 8 7 8 9 10 10 10 11 11 10 10 11 12 11 11 11 11 10 8 8 9 9 7 6 6 6 5 5 4 3 3 3 5 6 6 5 5 5 4 4 6 8 9 10 10 10 10 9 9 9 9 10 9 8 8 8 7 7 6 6 6 6 5 4 4 3 4 4 4
16 16 14 13 11 10 10 9 10 11 11 11 10 8 8 7 7 6 6 7 7 9 10 10 11 11 10 10 11 11 11 11 10 10 9 8 8 9 9 8 7 7 6 5 5 4 3 3 4 6 6 6 6 5 5 4 4 6 8 9 10 10 10 10 9 9 9 9 9 8 7 7 7 6 5 5 5 5 5 4 3 3 4 5 5 6
17 14 12 12 11 10 10 9 10 10 9 10 9 7 6 6 5 5 6 7 7 7 9 9 10 11 11 11 11 11 11 10 10 10 10 9 9 9 8 8 7 7 6 6 6 5 3 4 5 6 7 7 6 6 5 5 5 6 8 9 9 10 10 10 10 9 9 9 8 7 6 6 5 5 5 4 4 4 3 2 3 4 5 6 7 8
15 13 13 13 12 11 10 9 9 8 6 8 7 5 5 5 5 5 5 6 7 7 8 8 9 11 12 11 11 11 10 10 10 10 10 10 9 8 7 7 7 7 7 7 6 5 4 5 6 7 8 8 8 7 5 6 6 6 7 8 9 9 9 10 10 9 8 8 6 6 5 5 4 4 4 4 3 2 1 3 5 6 7 8 8 9
15 15 14 13 11 10 9 7 7 6 5 5 5 4 4 5 5 5 5 6 7 7 7 8 9 11 11 10 11 11 10 10 10 10 10 10 8 7 7 7 7 7 7 7 7 6 5 6 7 8 9 9 9 8 6 7 7 7 7 8 8 9 9 9 9 8 8 7 5 5 5 4 4 4 4 3 2 1 3 5 7 7 8 8 8 9
14 13 13 12 10 9 8 7 6 5 4 4 4 4 4 5 5 5 6 6 7 7 7 8 9 11 10 10 11 11 10 10 10 9 9 8 7 6 6 6 7 7 7 7 7 7 7 8 9 9 9 9 10 9 8 8 8 8 8 9 8 9 9 8 8 8 7 6 5 4 4 3 3 3 3 2 0 3 5 6 7 7 7 7 8 8
12 11 11 11 10 9 8 7 5 4 4 4 4 4 4 5 5 6 6 6 6 6 6 7 8 9 9 9 10 10 9 8 8 7 7 6 5 6 6 6 6 7 7 7 8 8 8 9 10 10 10 10 10 10 9 9 9 10 9 9 9 8 8 8 8 8 7 5 4 4 3 2 2 3 2 1 2 4 6 7 7 7 7 7 8 8
14 11 10 10 10 9 8 7 5 5 5 5 4 5 5 5 4 5 5 6 6 6 5 6 6 6 7 7 8 8 7 7 6 6 6 5 5 5 6 6 6 7 7 8 8 9 9 9 10 11 11 10 11 10 10 10 10 10 10 10 9 9 8 8 8 8 6 5 4 3 2 2 2 2 2 2 3 5 6 7 7 6 6 7 7 8
14 11 9 9 9 9 8 7 7 7 7 6 5 5 5 5 5 4 4 5 5 5 5 5 5 5 5 5 5 5 5 5 6 6 5 5 5 5 5 6 6 7 7 8 9 9 10 10 10 11 11 11 11 11 11 11 11 11 11 10 10 9 9 9 8 7 6 5 5 3 2 2 2 2 2 3 5 5 6 7 7 6 6 7 7 8
12 11 10 10 9 10 9 9 9 8 8 7 6 6 5 4 4 4 4 4 2 3 5 5 5 5 4 5 5 4 4 4 5 5 5 5 5 5 5 6 7 7 8 9 9 10 10 10 10 11 11 11 11 11 11 11 12 12 12 12 11 10 9 9 8 7 6 6 5 4 3 2 2 2 3 4 5 5 6 7 7 6 6 6 7 7
12 11 11 10 10 10 10 9 8 7 8 8 7 6 4 3 4 3 2 2 1 2 4 5 6 6 6 7 5 4 4 5 5 5 5 5 6 6 6 6 7 8 9 9 10 10 9 9 9 10 10 10 11 11 11 12 12 12 13 12 12 11 10 9 8 7 7 7 6 4 3 3 3 3 4 5 6 6 6 7 6 5 5 5 5 5
11 10 10 10 10 10 10 8 7 7 8 9 9 7 4 2 3 2 1 2 2 2 3 4 6 7 7 6 5 4 4 5 5 5 5 6 6 6 6 5 6 7 8 9 9 9 9 8 9 9 9 10 11 11 11 12 13 13 13 13 12 12 10 9 8 8 8 7 6 5 4 4 4 4 5 6 6 6 6 6 6 5 4 4 3 3
10 8 9 10 10 10 9 7 6 8 9 9 9 7 5 4 3 2 2 3 3 2 3 3 5 6 5 3 4 4 4 5 5 5 5 6 6 5 5 5 5 6 7 8 8 8 7 7 8 9 9 9 11 11 11 12 13 13 13 13 13 12 10 9 9 8 8 8 7 6 5 5 5 5 6 7 7 6 6 6 5 4 3 3 2 2
10 8 9 9 9 9 8 6 6 8 8 9 9 7 6 6 5 4 5 5 4 2 3 3 3 4 4 3 5 5 5 6 6 6 5 5 5 5 5 5 5 6 6 7 7 7 7 7 8 9 9 9 11 12 12 13 13 13 14 14 13 12 11 10 10 9 9 9 8 7 6 6 6 6 7 7 7 6 6 5 5 3 2 1 1 3
9 8 8 8 9 9 7 6 6 7 7 7 7 7 7 7 6 6 5 4 3 3 3 3 2 2 3 3 5 6 6 7 6 6 5 5 5 5 5 5 5 6 7 7 7 7 6 7 8 9 9 9 10 12 13 13 13 14 14 14 13 12 11 11 10 9 9 9 9 8 7 7 7 8 8 8 8 7 6 5 5 3 2 1 2 4
8 6 7 7 8 8 7 7 8 9 9 7 7 7 7 6 6 7 5 3 2 2 4 4 4 4 3 3 4 5 6 7 6 6 5 4 4 5 4 4 4 5 7 7 8 7 6 6 6 8 8 9 10 11 13 14 14 14 14 14 13 12 11 11 11 10 10 10 9 9 8 8 9 9 9 9 8 8 7 6 5 4 3 3 4 5
8 6 6 7 7 9 9 9 9 11 11 9 7 6 6 4 4 5 5 3 1 1 4 4 4 4 5 5 5 6 6 6 7 6 6 5 5 5 5 5 5 5 6 7 7 7 6 5 6 7 8 9 10 11 13 14 15 15 15 14 13 12 12 12 12 11 11 11 10 9 9 9 10 10 10 10 9 8 8 7 6 6 5 4 5 6
8 7 6 7 8 9 11 11 11 12 12 9 6 5 5 4 3 4 3 3 1 1 3 4 2 4 7 7 6 7 6 6 7 7 7 7 6 6 6 6 6 6 6 6 7 7 6 6 6 7 8 9 10 11 13 15 15 16 16 15 14 13 13 13 12 12 12 11 11 10 10 10 11 11 11 11 10 10 9 8 8 7 6 5 6 7
7 6 7 7 8 9 10 10 9 8 8 6 5 4 4 4 4 5 4 4 3 2 4 4 2 4 9 8 8 9 8 8 9 8 9 9 8 8 8 8 8 8 8 8 8 8 8 8 8 8 8 9 10 11 12 14 16 17 17 17 15 14 14 14 13 12 12 13 12 11 11 11 12 12 12 12 11 11 10 10 9 8 7 6 7 8
7 7 7 8 8 8 7 6 7 6 5 5 5 5 6 6 6 5 4 4 4 3 5 6 5 7 10 10 9 10 10 11 11 11 11 11 11 10 10 10 10 10 11 11 10 10 10 10 9 9 9 10 10 11 12 14 17 19 19 18 16 15 15 14 14 13 13 14 13 13 12 12 12 12 13 13 12 12 11 11 10 9 8 7 7 8
8 8 8 8 7 6 5 5 6 6 6 5 6 7 8 8 7 6 5 5 4 3 5 6 7 9 11 11 11 11 12 13 13 13 14 14 13 13 12 11 11 11 12 12 12 12 12 12 11 10 11 11 12 13 14 15 17 20 20 19 18 16 16 15 15 14 14 15 15 14 13 12 12 12 13 13 13 13 12 12 11 10 9 8 8 8
10 9 7 7 8 7 6 6 7 7 7 7 8 8 8 9 8 8 8 7 4 4 5 6 7 10 11 11 12 12 12 13 13 14 15 15 15 15 14 13 11 11 12 13 14 14 14 13 13 13 13 13 13 13 14 15 17 20 21 20 19 17 16 16 16 16 15 16 16 15 15 14 13 13 13 13 13 13 12 12 11 11 10 10 9 10
11 10 8 7 8 8 8 7 8 9 8 7 7 7 8 8 8 9 9 7 6 5 6 6 7 11 12 11 12 13 13 14 15 15 16 16 17 17 16 16 15 14 14 14 15 15 15 14 14 14 14 14 14 14 14 16 17 20 22 21 20 18 17 17 17 16 16 17 17 17 16 15 14 14 13 13 13 13 12 12 12 12 11 11 11 11
12 12 10 9 8 7 8 9 9 8 7 7 7 7 8 8 8 9 8 7 7 7 7 7 7 10 12 12 13 14 14 15 15 16 16 17 18 19 19 18 18 18 17 15 15 15 15 15 15 15 15 15 15 15 15 16 17 20 22 22 21 20 19 18 18 17 17 18 18 18 17 16 15 14 14 14 13 13 13 12 12 12 12 12 12 13
14 14 13 12 12 12 12 11 9 9 8 8 8 8 9 10 9 10 9 9 9 7 7 8 8 8 11 12 14 14 14 15 16 16 16 16 18 19 20 20 19 19 19 17 16 16 16 17 17 17 16 15 15 16 16 17 18 19 21 22 22 21 20 19 19 18 18 19 19 19 18 16 16 15 15 14 14 14 13 13 13 13 13 13 14 14
15 15 14 14 14 13 11 9 7 8 8 8 9 10 11 11 11 12 12 12 12 8 7 10 10 9 11 13 14 15 14 15 16 16 16 16 17 18 19 20 19 19 19 19 18 17 16 16 17 17 16 15 15 16 17 18 19 20 21 22 22 22 22 21 20 20 19 20 20 19 19 17 16 16 15 15 15 14 15 14 14 14 14 14 15 15
15 16 15 15 14 12 9 8 9 9 8 9 10 11 11 11 11 12 14 14 13 10 10 12 12 11 13 15 16 16 15 16 17 17 17 17 18 19 20 20 20 20 20 20 19 18 16 15 16 17 17 16 15 16 17 18 19 20 21 22 23 23 23 23 22 21 20 20 20 20 19 18 17 16 16 16 15 15 15 15 15 15 15 15 15 16
14 15 15 15 14 12 11 11 10 10 9 9 10 11 11 11 12 13 14 15 15 14 14 14 13 13 16 18 17 16 16 17 18 18 18 18 18 19 20 20 21 21 21 20 19 18 17 15 14 15 16 16 16 16 17 19 20 20 20 21 23 24 24 24 23 21 21 21 21 20 20 19 18 17 17 17 16 16 15 15 15 15 15 15 16 16
14 15 14 13 13 13 13 12 12 11 9 10 11 12 12 12 12 13 14 15 16 15 16 16 15 16 19 19 17 16 17 18 18 19 19 18 19 20 21 21 21 21 21 20 17 16 16 16 15 14 15 16 17 17 18 20 20 21 20 21 22 23 24 24 23 22 22 21 21 20 20 20 19 18 18 18 17 17 16 16 16 16 17 16 16 16
14 14 15 13 13 15 15 13 13 12 11 12 13 13 13 13 11 12 13 14 15 16 16 16 17 18 20 19 17 17 18 18 18 19 19 18 19 20 20 20 20 20 19 19 17 16 16 16 15 15 15 16 17 18 19 21 22 22 21 21 23 23 23 23 23 23 22 21 20 20 21 21 20 19 19 19 19 18 17 17 16 17 17 17 17 17
15 15 16 16 15 17 16 13 14 14 13 14 13 12 13 13 12 12 13 13 14 15 15 16 17 19 19 18 18 18 18 18 18 18 17 18 19 20 20 19 18 18 18 18 17 16 16 16 16 15 15 16 18 18 19 21 22 23 22 22 22 22 22 22 23 23 22 21 21 21 21 21 21 20 20 20 20 19 19 18 17 17 17 17 18 18
15 17 17 17 17 18 17 14 14 14 15 15 14 13 13 14 14 14 13 13 14 14 14 15 17 17 17 18 18 18 17 17 18 18 17 18 20 21 19 17 16 17 17 17 16 15 16 16 16 15 15 16 17 18 18 19 21 22 21 20 20 20 20 21 22 22 22 22 21 21 22 21 21 21 21 21 21 20 20 19 18 18 18 18 18 19
15 17 18 18 18 18 17 14 13 15 17 16 14 13 14 14 15 14 13 14 14 13 14 14 16 17 17 17 18 18 18 18 18 18 17 18 19 20 18 16 15 16 16 16 15 15 15 15 15 14 14 15 16 16 16 17 19 19 19 19 19 19 20 21 21 22 22 22 22 22 22 22 21 21 21 21 21 21 21 20 19 19 19 19 20 20
14 15 16 17 18 17 15 14 14 16 17 16 13 13 15 15 14 12 12 13 13 12 13 13 15 17 17 16 17 18 18 18 18 18 16 15 16 17 16 15 14 14 14 14 14 13 13 14 14 13 11 11 11 12 13 16 17 17 17 17 18 19 19 20 21 22 22 22 22 22 22 22 21 21 21 21 21 21 21 20 20 20 20 20 21 21
15 15 15 15 16 15 14 15 15 15 16 14 12 13 15 14 13 11 11 13 13 12 12 12 14 15 16 16 17 18 18 17 18 18 15 14 15 15 14 14 13 13 13 13 12 12 12 12 12 10 8 7 7 9 11 14 15 15 15 15 16 17 18 19 20 21 21 21 22 22 22 21 20 20 21 21 21 21 21 21 20 20 20 21 21 21
16 17 16 16 16 15 15 16 16 15 16 15 12 12 13 14 13 10 11 13 13 12 12 12 12 13 14 15 16 17 17 16 17 17 14 12 14 14 12 13 12 12 11 11 11 11 10 10 9 8 7 7 8 9 10 12 13 14 14 14 15 16 17 18 19 20 20 20 21 21 20 20 20 21 21 21 21 21 21 21 21 21 21 21 21 22
16 17 17 17 17 16 17 17 16 16 17 17 14 12 13 14 13 11 11 13 13 12 12 13 13 13 14 15 16 16 15 16 17 17 13 11 12 12 11 11 11 10 10 10 10 10 10 9 9 9 8 8 9 9 10 11 12 13 13 14 15 15 16 18 19 20 20 20 20 19 19 20 20 21 21 21 21 21 21 21 21 21 21 21 21 22
17 17 17 17 18 18 18 18 18 18 19 19 16 14 14 15 14 13 13 13 12 12 13 13 12 13 14 15 15 15 14 16 18 15 11 12 12 11 10 10 10 9 8 7 8 9 9 9 9 9 9 9 9 9 9 10 11 12 13 14 14 14 16 18 20 19 19 19 19 19 20 20 20 21 21 21 22 22 21 21 21 21 21 22 22 22
17 17 17 18 19 19 19 19 20 21 21 20 18 17 16 17 16 15 15 14 12 12 13 13 13 13 14 14 15 14 13 14 15 13 12 13 12 10 9 9 8 8 6 5 5 6 7 8 8 8 8 8 8 9 10 11 12 13 14 13 14 16 18 20 20 19 18 19 19 20 20 20 20 21 21 22 22 22 21 21 21 21 21 21 22 22
18 18 19 19 18 19 19 19 21 23 22 21 20 20 19 19 18 16 16 15 14 14 14 14 14 14 14 14 14 14 12 12 13 14 14 14 13 12 10 9 8 8 7 6 6 5 6 6 6 6 7 7 8 9 10 11 12 14 14 14 16 18 19 19 19 19 19 19 19 20 20 20 21 21 21 21 21 21 20 20 20 20 21 22 23 23
18 19 20 20 19 20 20 21 23 24 24 22 22 22 21 21 20 18 18 17 16 16 15 15 15 16 15 15 15 14 13 12 12 13 14 15 15 14 13 11 11 10 10 9 9 8 8 8 7 7 7 6 7 8 9 11 12 12 13 16 18 19 18 18 18 18 18 18 19 19 20 21 20 20 19 20 20 20 20 20 20 21 23 24 25 25
17 19 20 20 20 21 21 22 24 25 25 24 24 24 23 23 21 21 20 19 18 18 17 17 18 18 17 16 16 15 15 13 13 13 14 15 16 16 16 15 14 14 14 13 13 12 12 11 11 11 10 9 9 9 9 10 11 12 13 16 17 16 15 16 16 16 17 17 18 19 19 19 20 20 20 20 21 21 22 22 23 24 24 25 25 26
19 19 19 19 20 20 21 22 23 24 24 25 25 25 25 24 23 22 23 22 21 20 19 19 20 19 19 18 18 17 16 15 14 14 15 16 17 18 18 19 18 18 18 17 17 17 17 16 15 15 14 13 13 12 12 12 12 13 14 15 15 15 15 16 16 17 18 18 19 20 20 21 22 22 22 22 23 24 24 24 25 25 25 25 26 26
21 21 20 19 19 19 21 23 23 22 23 23 24 25 26 25 24 23 23 24 23 22 22 21 22 22 21 20 20 19 18 17 16 16 17 17 18 19 19 20 21 21 21 21 21 21 20 20 19 18 18 17 17 16 16 16 16 16 17 17 17 18 19 19 19 20 20 20 21 22 22 23 23 24 24 24 24 25 25 26 26 26 27 27 27 28
21 21 20 20 20 20 21 23 23 23 23 24 26 27 27 26 25 24 24 25 25 25 24 24 24 24 24 23 22 22 21 20 19 18 18 19 20 21 21 22 23 24 24 24 24 24 24 23 22 21 20 20 19 19 19 19 19 20 20 20 21 21 22 22 21 21 21 21 21 22 22 22 23 24 24 25 25 26 27 28 28 28 28 28 29 29
23 21 21 21 21 22 23 24 24 24 24 26 27 27 27 27 26 25 25 26 27 28 28 27 27 27 27 26 26 25 24 23 22 21 20 20 20 21 22 22 23 24 25 26 27 26 26 25 24 23 22 21 21 21 21 21 21 21 21 22 22 21 21 21 20 20 20 20 21 21 22 23 24 25 26 27 28 29 29 30 30 30 29 30 30 31
25 24 24 23 23 24 24 24 25 25 26 27 27 26 26 26 25 25 26 27 28 28 28 29 30 30 30 29 28 27 26 25 25 24 24 23 23 23 22 22 23 24 25 26 27 28 27 27 25 24 22 22 21 21 21 21 21 20 20 20 20 20 20 20 20 20 21 21 22 23 24 25 26 27 28 28 29 29 30 30 30 31 31 32 32 34
27 27 27 25 24 25 25 25 26 27 27 26 26 25 26 25 25 25 26 28 29 29 28 27 29 31 31 31 31 30 29 28 28 28 28 28 27 27 26 25 24 24 24 25 26 27 28 27 26 24 23 22 21 21 21 20 20 20 20 20 20 21 21 21 21 22 23 23 24 25 26 27 27 28 28 29 30 30 31 32 32 33 34 35 35 36
28 29 29 28 27 27 27 26 26 27 27 25 23 22 23 24 25 26 27 28 29 29 28 26 26 27 29 29 29 30 30 29 30 32 33 33 32 32 30 29 28 26 25 25 26 27 28 28 27 26 25 24 23 23 22 22 22 22 22 23 23 23 23 24 24 24 25 26 26 27 28 28 29 29 30 31 32 32 33 34 35 35 36 37 37 38
Wind_Direction
151 154 156 162 167 164 161 170 176 179 185 189 190 197 205 212 224 232 240 247 250 252 250 248 249 248 246 243 242 240 238 236 236 235 231 222 224 227 226 236 254 255 240 225 223 225 235 250 264 272 278 285 290 289 282 262 248 240 231 220 207 206 214 224 238 253 265 276 291 307 315 316 317 322 326 330 331 329 327 327 328 328 333 345 360 8
155 154 152 151 156 152 152 170 176 173 177 184 189 197 205 212 220 225 235 244 247 249 247 245 246 248 247 243 240 238 236 236 238 239 232 219 221 228 229 233 248 249 233 217 215 217 227 246 262 273 282 288 292 293 285 264 248 237 226 217 212 214 222 233 246 259 270 284 301 309 310 312 317 324 329 331 330 329 329 329 328 330 345 8 25 31
166 151 152 148 153 157 160 171 172 171 178 185 190 198 205 210 214 218 227 233 237 242 243 243 247 251 250 244 241 240 238 237 241 245 241 229 227 234 234 232 236 238 225 208 206 207 216 248 275 284 288 290 293 292 281 264 245 231 224 220 220 224 231 241 253 263 276 291 302 303 303 311 319 325 330 330 330 331 330 328 330 345 16 37 50 62
159 151 150 144 154 168 173 175 173 176 182 184 187 197 204 206 213 220 227 230 233 239 242 244 247 251 248 241 240 242 239 236 239 245 246 241 236 238 238 233 232 231 218 203 201 200 209 251 278 286 287 288 288 283 273 260 240 227 226 229 229 233 240 249 260 269 281 293 296 297 303 314 320 325 329 330 332 333 330 332 357 30 52 65 77 88
145 148 145 144 161 172 174 179 178 177 181 182 183 194 203 205 218 229 234 238 241 242 242 243 247 250 246 238 237 238 237 237 240 245 249 248 243 241 240 233 227 223 215 207 206 206 221 253 275 283 286 285 280 274 267 257 242 230 231 235 236 240 247 256 264 271 282 290 291 294 306 314 319 325 329 331 334 333 337 19 64 74 81 87 92 95
139 146 148 153 167 170 170 176 176 171 170 175 180 192 210 220 234 245 253 253 250 246 245 244 248 251 245 237 235 235 237 241 245 248 250 250 246 242 236 226 218 214 210 211 213 218 235 257 274 282 283 281 276 271 267 262 252 241 239 242 243 245 250 257 262 271 283 286 287 296 308 313 319 324 327 331 333 341 47 85 93 95 95 96 97 95
147 152 157 161 166 168 167 165 167 170 165 167 183 199 221 240 247 258 264 261 255 251 250 246 246 251 247 237 234 235 237 244 250 253 253 252 248 241 232 225 220 216 212 216 223 233 250 268 279 283 282 279 276 271 265 262 258 249 245 247 247 246 249 254 260 273 283 282 286 298 306 310 318 323 326 330 337 64 102 104 103 101 99 98 96 92
157 159 160 161 163 167 166 164 169 177 173 179 202 209 231 251 257 265 266 263 261 255 251 246 244 250 251 241 236 234 236 246 254 257 259 257 247 238 233 232 232 226 222 226 235 248 266 278 282 283 280 274 272 268 260 257 256 251 246 247 246 244 245 251 264 276 278 276 284 293 298 307 317 319 323 325 58 117 115 111 105 101 99 97 94 89
166 170 164 160 163 169 176 179 182 189 193 208 222 222 237 252 262 271 266 260 256 250 246 248 246 243 243 238 234 234 235 242 249 249 252 252 242 238 239 243 244 241 240 243 250 260 273 283 285 283 277 270 267 263 258 253 252 251 247 246 244 241 243 252 266 272 267 267 275 281 289 303 312 311 309 280 150 131 122 113 105 102 100 97 93 87
171 179 173 167 167 175 190 197 205 217 222 234 240 235 239 247 258 268 265 254 247 245 239 243 243 230 228 229 227 233 237 234 234 233 236 240 241 245 250 256 259 258 258 259 263 271 280 286 286 283 278 271 265 259 255 251 249 248 245 244 242 240 243 253 263 264 256 256 260 263 276 289 295 296 282 205 162 144 128 115 108 105 102 97 89 81
171 179 183 183 178 183 199 212 222 230 234 239 240 241 243 249 258 261 262 253 249 254 240 232 234 222 224 232 225 233 239 227 223 226 229 233 240 248 254 263 267 269 270 271 275 280 284 285 282 281 278 272 264 256 250 248 246 245 242 239 238 237 242 252 259 254 246 245 245 246 255 263 271 275 250 199 173 154 134 120 112 110 104 94 82 71
175 184 191 193 191 194 204 214 222 230 237 240 238 243 250 258 263 264 267 255 246 269 253 238 239 228 223 236 231 232 237 225 218 221 226 231 236 240 245 257 266 271 273 275 280 282 282 281 278 279 277 271 262 252 246 243 242 242 238 235 234 235 241 252 254 245 239 238 235 234 234 238 249 252 234 204 184 163 140 126 120 117 105 87 73 60
184 190 196 197 197 200 205 210 218 232 243 245 240 242 252 273 272 265 270 260 228 264 262 251 247 237 231 235 236 240 240 232 227 228 233 238 243 247 250 256 262 269 273 276 279 281 281 279 273 273 273 268 259 250 243 238 237 238 235 231 230 233 240 248 246 239 236 234 230 228 226 227 235 239 230 211 192 172 150 135 131 127 108 86 67 49
184 194 203 205 204 207 210 210 218 237 246 243 238 236 235 256 265 259 271 271 246 258 268 259 248 243 242 236 232 249 248 236 236 245 254 253 252 254 255 255 260 267 271 273 277 282 284 279 269 265 266 262 256 250 241 233 232 233 230 228 229 233 239 243 239 234 234 233 229 227 224 224 230 234 231 219 202 182 164 150 145 139 118 92 65 37
174 192 207 209 210 215 219 218 224 242 249 243 236 233 228 234 241 235 233 235 234 251 269 261 242 239 243 221 206 232 240 232 237 248 258 257 252 253 252 252 259 265 269 272 277 284 285 275 264 261 261 259 254 248 238 230 229 230 227 225 228 233 238 237 231 230 232 232 230 227 225 225 228 231 231 224 212 195 180 169 162 156 135 105 60 10
179 197 205 209 216 219 224 233 238 246 250 243 238 236 236 237 239 234 228 225 230 252 260 259 247 241 246 223 202 217 227 232 246 254 254 255 253 255 257 256 260 265 268 273 277 280 280 272 264 258 253 252 250 244 234 228 227 228 225 225 229 235 237 233 226 227 230 231 231 229 227 226 228 229 230 227 221 210 199 191 184 180 165 132 346 339
190 209 213 218 229 231 232 242 249 248 246 244 242 238 236 240 241 237 229 217 227 266 274 272 279 275 270 239 212 218 230 236 247 259 260 260 261 260 260 261 264 268 270 271 274 275 273 270 268 262 254 249 247 240 230 226 226 226 225 225 231 236 237 232 227 226 229 232 233 231 228 227 228 229 229 229 228 222 216 212 211 213 218 259 308 326
190 207 223 235 247 253 253 249 248 246 245 248 247 242 239 242 244 242 239 227 231 278 290 281 282 286 290 277 238 232 238 242 249 259 262 262 264 260 258 264 273 275 271 268 269 270 267 265 267 268 261 252 248 240 229 225 226 226 225 227 234 238 237 233 230 228 229 233 235 235 231 228 228 228 228 230 231 231 229 228 232 238 250 279 306 321
190 196 222 240 250 257 255 245 241 242 242 242 245 252 251 247 253 252 246 239 230 271 283 288 306 294 272 268 266 254 245 249 255 260 262 260 263 262 261 269 280 282 276 270 268 268 267 268 271 273 269 259 253 244 231 225 226 226 226 229 235 238 237 235 233 230 231 233 236 238 235 231 229 228 228 230 233 235 236 238 243 251 262 285 306 319
197 195 215 241 247 245 243 239 235 234 236 236 243 264 267 260 278 280 262 249 253 268 265 271 334 309 273 263 267 268 262 258 257 257 258 257 259 264 265 268 272 275 278 277 277 278 279 282 281 279 275 267 259 250 237 228 226 226 226 228 234 237 234 234 233 232 233 235 237 240 238 234 232 230 230 232 235 238 239 242 248 256 268 286 305 316
207 202 217 242 251 244 237 238 241 240 241 247 256 272 273 266 271 284 283 263 257 252 244 248 269 290 280 274 273 275 274 271 268 265 263 262 261 264 264 265 269 276 282 284 287 289 289 289 286 279 274 269 263 258 247 235 229 228 227 228 232 234 233 232 233 233 235 237 239 241 241 238 235 233 232 233 236 239 242 246 252 260 273 289 303 312
217 214 222 241 256 256 243 244 261 274 272 267 267 264 262 260 261 276 287 273 263 245 232 243 261 276 281 283 281 280 279 279 279 277 275 274 271 268 266 267 274 280 284 285 287 290 291 291 289 280 271 266 261 259 252 240 231 229 229 229 231 233 232 231 231 233 235 238 240 242 243 242 238 235 234 235 237 239 242 248 255 264 276 287 297 303
224 225 227 237 252 265 266 259 268 283 286 272 260 256 255 257 255 255 264 267 266 250 238 244 258 271 278 281 282 283 284 284 285 285 284 282 280 278 275 274 277 280 283 284 285 288 290 290 287 279 269 262 257 254 252 245 235 229 228 229 230 231 231 231 231 232 235 238 241 243 245 244 241 238 237 237 239 242 246 252 258 266 274 281 287 293
228 234 237 244 250 252 255 262 264 267 272 268 259 257 259 261 259 253 254 257 252 252 257 257 264 272 277 277 278 283 285 285 287 287 287 287 286 286 285 282 278 277 282 285 287 288 288 285 283 279 273 267 260 255 253 250 240 231 229 229 230 231 231 231 232 233 235 239 242 244 246 246 244 242 242 243 244 247 252 258 264 269 274 278 283 288
233 238 237 244 254 255 258 267 265 257 258 264 263 260 260 261 262 260 255 248 243 254 266 267 270 277 281 281 279 280 281 282 283 284 285 287 288 288 287 285 282 281 283 285 287 288 287 285 283 279 274 268 262 255 251 249 243 234 230 229 230 231 232 231 232 234 236 239 242 245 247 248 246 245 245 246 248 251 255 260 265 270 274 279 283 287
236 239 235 233 233 238 248 254 260 266 273 273 268 266 267 268 268 266 260 250 245 250 260 261 262 272 280 284 283 281 282 281 281 281 283 285 286 287 287 287 288 288 287 286 286 287 288 288 285 280 275 267 260 254 248 246 244 237 231 229 229 231 232 232 232 234 237 239 242 246 248 250 249 247 247 248 249 253 256 259 264 269 274 279 284 288
237 238 238 236 226 218 226 238 255 275 284 282 279 280 283 286 288 285 283 274 264 258 259 259 258 266 277 282 283 285 286 286 286 286 286 286 286 287 288 289 290 290 290 289 288 287 287 287 285 281 276 268 259 253 247 243 241 237 232 228 228 230 233 233 233 234 236 239 241 245 249 251 251 250 249 250 251 254 257 260 264 268 273 278 282 286
237 237 238 243 238 226 226 238 257 269 273 277 279 281 283 289 293 291 287 279 272 271 269 266 266 270 274 276 279 282 287 289 291 292 293 293 292 291 290 290 290 290 290 290 290 289 288 286 283 280 275 267 257 250 246 242 239 236 232 229 228 230 233 234 234 233 235 237 240 243 248 251 253 253 252 251 253 255 258 261 264 268 272 277 281 284
235 238 239 244 242 234 232 244 252 254 258 266 270 273 276 279 281 280 281 280 280 279 275 272 273 275 274 273 274 279 285 288 290 294 296 295 295 293 292 291 291 290 290 290 291 291 288 283 281 279 275 268 258 248 244 242 240 236 233 231 230 230 233 235 235 235 235 238 239 242 247 251 254 255 254 254 254 257 260 263 266 270 274 277 281 285
234 239 243 243 239 235 237 245 249 253 264 275 275 271 269 271 275 276 276 278 279 278 273 273 275 274 271 269 270 274 280 284 288 291 292 292 292 290 289 291 292 292 292 292 291 289 285 282 280 277 272 266 257 246 240 239 239 237 234 234 233 233 234 236 238 238 238 239 241 243 246 250 253 256 258 258 258 259 263 266 270 274 277 279 282 285
238 240 243 241 238 238 240 244 251 260 274 278 271 267 268 269 272 277 278 277 277 277 275 275 277 272 269 270 273 276 278 281 283 285 287 289 288 286 287 290 292 293 294 293 290 286 283 283 281 274 265 258 253 245 238 235 237 236 235 235 236 236 235 236 238 239 240 241 242 244 246 249 252 256 260 262 262 264 266 268 272 276 279 281 284 287
244 242 241 238 239 245 246 248 257 265 272 273 268 268 273 277 278 282 285 283 281 279 278 279 279 274 273 276 279 278 277 278 278 279 283 287 285 285 287 289 291 293 293 292 290 286 285 286 283 273 261 252 248 244 238 235 235 235 234 234 235 236 236 236 237 239 242 244 245 246 247 248 251 256 260 264 266 267 269 270 273 277 280 283 287 290
245 243 241 238 241 249 252 255 264 269 271 276 281 282 284 292 298 295 290 288 286 284 282 278 275 274 277 280 280 279 279 280 279 278 280 283 282 283 285 288 289 290 290 290 290 288 287 286 282 274 263 255 249 244 239 236 235 235 234 235 236 238 238 238 239 241 244 246 247 248 249 249 252 255 260 264 267 269 271 272 275 277 280 284 286 289
242 244 242 239 241 250 255 260 267 270 271 276 285 288 289 296 300 297 295 292 290 288 285 280 276 275 277 278 279 280 280 282 282 281 279 279 279 280 283 286 287 287 287 288 288 287 285 283 279 272 264 258 252 246 242 239 237 237 238 239 241 241 241 240 240 241 244 247 249 250 251 251 253 256 259 263 266 269 271 272 273 276 280 282 285 287
240 242 241 237 237 245 255 262 268 271 272 275 276 276 281 290 295 296 293 288 283 279 278 278 279 277 274 273 277 279 280 283 285 284 281 277 275 277 281 284 285 284 285 285 284 283 281 280 276 269 263 260 256 249 242 237 237 238 240 242 243 243 242 241 241 243 245 249 252 253 253 253 255 257 261 264 267 269 269 270 272 276 279 281 283 285
241 242 241 237 236 241 251 258 262 269 275 276 271 269 274 283 290 290 284 281 281 280 279 281 283 282 278 275 275 276 278 282 285 285 284 277 273 274 278 282 283 281 279 278 278 279 278 276 271 265 263 265 261 252 242 236 237 238 241 242 243 244 244 244 244 245 247 251 253 255 255 257 258 260 262 264 267 269 270 270 273 277 279 280 281 283
242 245 245 241 237 239 245 252 258 266 273 273 267 266 273 280 283 281 275 275 279 284 287 286 285 286 286 284 280 276 276 279 282 284 283 275 270 272 276 280 281 276 271 270 272 275 276 274 269 260 254 253 252 246 240 238 238 239 241 242 243 243 244 245 247 248 251 254 256 257 259 261 263 265 265 266 268 270 271 272 275 278 278 279 280 281
241 244 246 245 240 239 247 255 259 263 267 268 267 267 272 277 277 273 268 269 274 279 282 284 285 288 288 285 281 277 275 275 277 277 273 266 267 271 276 278 275 269 265 266 268 268 268 267 261 250 237 228 226 225 226 230 234 237 239 241 240 239 240 242 245 248 250 253 255 257 260 263 264 265 267 269 270 270 271 273 275 276 276 277 279 281
243 243 244 246 245 245 250 256 259 258 259 262 263 261 262 267 269 266 262 263 265 268 272 279 287 289 288 284 280 277 274 270 269 269 265 263 267 271 273 273 270 267 268 268 266 263 260 258 250 237 228 223 221 219 219 222 228 231 233 233 233 234 236 239 243 246 249 253 255 257 259 260 261 264 267 269 269 269 271 273 273 273 274 277 280 283
249 248 247 248 249 250 252 255 258 257 254 254 254 250 249 254 258 258 257 256 256 260 267 275 282 285 285 282 279 280 278 273 272 273 272 269 269 269 269 270 269 271 277 278 271 263 259 256 248 238 230 224 221 219 218 220 224 228 229 228 228 231 235 240 244 248 252 257 258 258 258 260 262 264 265 266 268 269 271 274 276 276 277 280 283 286
252 253 252 251 251 253 253 253 254 254 250 247 248 246 244 246 249 252 254 253 253 257 264 271 275 278 280 280 280 284 285 281 284 289 284 276 272 268 266 265 265 269 275 279 277 270 264 261 255 246 239 232 226 222 220 221 225 229 232 231 231 234 238 243 248 252 256 259 259 259 260 261 261 262 263 266 269 271 273 276 279 280 281 283 285 286
251 252 252 251 251 253 254 251 251 251 247 244 245 244 242 244 246 249 253 254 253 255 260 266 270 271 273 276 281 285 284 282 286 288 284 279 275 269 263 257 256 260 262 264 270 274 275 277 273 262 250 242 236 231 228 227 228 231 234 233 235 239 243 247 250 252 253 255 257 260 260 260 260 261 264 267 271 273 276 278 280 281 282 283 284 285
251 252 253 253 253 253 252 249 248 249 248 246 246 244 243 245 247 248 251 252 252 252 255 262 267 267 267 270 275 280 283 282 282 281 279 278 275 271 265 258 254 256 259 263 268 272 276 281 283 281 273 262 251 245 241 238 235 234 233 233 238 243 246 248 250 250 251 252 255 258 260 263 265 266 268 270 273 275 277 279 279 280 282 283 285 287
251 252 253 254 254 253 253 252 251 252 253 252 248 244 242 245 249 252 252 252 250 248 248 253 259 261 263 266 269 273 276 277 277 277 276 275 275 274 271 266 263 262 264 267 270 273 275 277 279 279 278 274 268 261 255 251 248 244 241 243 248 252 253 253 254 256 258 260 261 263 267 270 271 271 271 273 275 277 278 280 280 280 281 283 284 285
252 253 255 256 256 256 257 257 255 257 258 258 254 250 246 244 246 250 252 252 251 249 248 250 254 259 262 265 267 269 270 272 274 276 276 275 275 275 274 273 272 270 270 272 274 275 277 278 278 278 277 275 272 269 265 261 257 255 255 259 263 265 264 263 262 261 264 266 269 271 273 274 274 275 276 277 278 279 279 279 279 280 281 282 282 283
254 256 258 259 259 260 260 260 259 260 261 261 259 257 254 251 249 251 255 256 254 251 250 250 253 256 259 262 265 267 267 268 269 271 273 274 274 273 274 275 275 275 274 273 273 274 276 277 277 277 276 274 272 269 267 264 261 260 261 263 265 265 266 267 267 267 268 270 272 273 274 275 276 277 278 278 278 278 279 279 279 279 280 280 281 282
255 256 257 258 260 260 261 262 263 263 263 263 261 258 257 258 257 257 258 259 257 255 254 254 254 256 258 260 262 265 266 267 267 268 270 272 273 273 274 275 276 277 278 277 276 275 275 275 274 273 270 269 267 266 265 264 264 265 265 266 267 268 269 270 271 272 273 273 273 274 273 273 274 276 277 277 278 278 278 278 277 278 279 280 282 283
257 258 258 258 258 259 260 262 263 262 264 264 261 257 257 258 259 259 258 259 259 257 256 255 255 256 258 259 260 262 264 266 267 268 269 270 271 272 274 276 278 279 280 280 280 278 276 274 272 269 266 264 263 262 263 264 265 267 268 270 271 272 272 273 273 275 275 275 274 274 274 274 274 274 274 275 275 275 275 276 278 280 282 284 286 287
260 260 261 261 261 261 262 263 263 263 265 265 262 261 261 262 262 260 258 259 260 259 256 255 254 254 255 258 259 260 262 264 266 268 269 269 269 270 271 273 276 278 279 280 280 279 277 274 270 267 265 264 263 263 263 264 265 266 267 268 269 270 271 273 275 275 275 275 274 274 274 274 274 274 273 274 275 276 278 281 283 285 286 286 287 286
259 260 260 262 263 263 263 263 264 265 267 269 268 267 266 264 263 262 261 261 263 265 266 265 261 256 254 257 259 259 260 262 266 268 269 268 267 267 268 270 274 275 276 277 278 278 276 273 269 266 264 261 260 260 260 262 262 264 264 264 265 266 267 268 270 271 271 272 272 273 273 274 275 276 277 278 280 281 283 284 285 285 285 285 284 284
259 259 258 259 260 261 261 262 264 265 268 272 274 273 269 264 262 262 263 264 265 266 266 267 266 262 260 262 263 262 262 265 270 272 270 267 265 264 265 266 268 269 270 272 274 275 275 273 270 267 264 261 258 256 254 255 256 257 259 260 261 263 264 265 266 268 269 271 272 273 275 276 277 279 280 281 282 283 283 283 283 283 283 283 283 284
Height
5780 5782 5785 5787 5788 5789 5791 5793 5794 5795 5797 5799 5800 5801 5802 5802 5803 5804 5804 5804 5805 5805 5806 5806 5806 5806 5807 5807 5807 5807 5807 5807 5807 5808 5809 5809 5809 5809 5809 5809 5810 5810 5811 5811 5811 5812 5812 5812 5812 5812 5812 5812 5812 5812 5812 5812 5812 5812 5812 5812 5813 5814 5814 5815 5815 5815 5815 5815 5814 5814 5813 5812 5811 5811 5810 5809 5809 5808 5808 5807 5806 5806 5805 5804 5804 5803
5779 5781 5783 5786 5787 5789 5791 5793 5794 5795 5797 5798 5799 5800 5801 5801 5802 5803 5803 5803 5804 5804 5804 5805 5805 5805 5806 5806 5806 5806 5806 5806 5806 5807 5807 5808 5808 5808 5808 5809 5809 5810 5810 5810 5811 5811 5812 5812 5812 5811 5811 5812 5812 5812 5812 5811 5811 5811 5811 5812 5812 5813 5814 5814 5815 5815 5815 5814 5814 5813 5812 5812 5811 5810 5810 5809 5809 5808 5808 5807 5806 5805 5805 5804 5803 5803
5778 5781 5783 5785 5786 5788 5790 5792 5793 5794 5796 5797 5798 5799 5800 5800 5801 5802 5802 5802 5803 5803 5803 5804 5804 5805 5805 5806 5805 5805 5805 5805 5806 5806 5807 5807 5807 5807 5807 5808 5808 5809 5809 5810 5810 5811 5811 5811 5811 5811 5811 5811 5811 5811 5811 5811 5811 5811 5811 5812 5812 5813 5814 5814 5814 5814 5814 5814 5813 5812 5812 5811 5810 5810 5809 5809 5808 5808 5807 5807 5806 5805 5804 5804 5803 5803
5779 5782 5783 5783 5785 5787 5789 5790 5792 5794 5795 5796 5797 5798 5798 5799 5800 5800 5801 5801 5801 5801 5802 5802 5803 5803 5804 5805 5805 5804 5805 5805 5805 5805 5805 5806 5806 5806 5806 5807 5807 5808 5809 5809 5810 5810 5811 5811 5811 5811 5810 5810 5811 5811 5811 5811 5811 5811 5811 5812 5812 5813 5813 5813 5814 5814 5813 5813 5812 5812 5811 5810 5810 5810 5809 5809 5808 5808 5807 5806 5806 5805 5804 5804 5804 5804
5780 5782 5783 5784 5786 5788 5789 5790 5792 5793 5794 5795 5796 5796 5797 5798 5798 5799 5800 5800 5800 5800 5801 5801 5802 5802 5803 5803 5803 5804 5804 5804 5804 5804 5804 5805 5805 5805 5806 5806 5807 5807 5808 5809 5809 5810 5810 5810 5810 5810 5810 5810 5810 5810 5810 5811 5811 5811 5811 5811 5812 5812 5813 5813 5813 5813 5812 5812 5812 5811 5811 5810 5810 5809 5809 5808 5808 5807 5807 5806 5806 5805 5805 5804 5804 5804
5780 5782 5783 5785 5787 5788 5789 5790 5791 5792 5794 5794 5795 5795 5796 5797 5797 5798 5799 5799 5799 5799 5800 5800 5801 5801 5801 5802 5802 5803 5803 5803 5803 5803 5803 5803 5804 5804 5805 5806 5806 5807 5807 5808 5808 5809 5809 5810 5810 5810 5809 5809 5809 5809 5810 5810 5810 5811 5811 5811 5812 5812 5812 5812 5812 5812 5812 5811 5811 5810 5810 5810 5809 5809 5809 5808 5808 5807 5807 5806 5806 5805 5805 5805 5805 5804
5781 5782 5784 5785 5787 5788 5789 5790 5791 5792 5793 5793 5794 5795 5795 5796 5797 5797 5798 5798 5799 5799 5799 5799 5800 5799 5799 5800 5801 5802 5802 5802 5802 5802 5802 5803 5803 5803 5804 5805 5805 5806 5807 5807 5808 5808 5809 5809 5809 5809 5809 5808 5808 5808 5809 5809 5809 5810 5810 5811 5811 5811 5811 5811 5811 5811 5811 5811 5810 5810 5809 5809 5809 5809 5808 5808 5808 5807 5807 5807 5806 5806 5806 5805 5805 5805
5781 5782 5784 5785 5786 5788 5789 5790 5791 5792 5793 5793 5793 5794 5795 5795 5796 5796 5797 5798 5798 5799 5798 5799 5799 5798 5798 5799 5800 5801 5802 5802 5802 5802 5802 5802 5802 5803 5803 5804 5805 5805 5806 5806 5807 5807 5808 5808 5808 5808 5808 5807 5807 5807 5808 5808 5808 5809 5809 5810 5810 5810 5810 5810 5810 5810 5810 5810 5809 5809 5809 5809 5809 5808 5808 5808 5808 5807 5807 5807 5806 5806 5806 5806 5806 5805
5782 5783 5784 5785 5786 5788 5789 5790 5791 5791 5792 5792 5793 5794 5794 5795 5795 5796 5797 5798 5798 5798 5798 5798 5798 5798 5798 5798 5799 5800 5801 5801 5801 5801 5801 5802 5802 5802 5803 5803 5804 5804 5805 5806 5806 5806 5807 5807 5807 5807 5807 5807 5806 5806 5807 5807 5807 5808 5808 5809 5809 5809 5809 5809 5809 5809 5809 5809 5809 5809 5809 5808 5808 5808 5808 5808 5808 5808 5807 5807 5807 5806 5806 5806 5806 5806
5782 5783 5784 5785 5786 5787 5789 5789 5790 5791 5791 5792 5793 5794 5794 5795 5795 5796 5797 5798 5798 5798 5798 5798 5797 5797 5798 5797 5798 5799 5799 5800 5800 5800 5801 5801 5801 5802 5802 5802 5803 5803 5804 5804 5805 5805 5805 5806 5805 5805 5805 5805 5805 5805 5805 5806 5806 5807 5807 5808 5808 5808 5808 5809 5809 5809 5809 5809 5808 5808 5808 5808 5808 5808 5808 5808 5808 5808 5807 5807 5807 5807 5807 5806 5806 5806
5782 5783 5785 5786 5786 5787 5788 5790 5791 5791 5792 5792 5793 5794 5794 5795 5796 5796 5797 5797 5798 5798 5797 5797 5797 5797 5797 5796 5797 5797 5798 5799 5799 5800 5800 5800 5801 5801 5801 5802 5802 5802 5803 5803 5803 5804 5804 5804 5804 5804 5804 5804 5804 5804 5804 5804 5805 5806 5806 5807 5807 5807 5807 5808 5808 5808 5808 5808 5808 5808 5808 5808 5808 5808 5808 5808 5808 5808 5807 5807 5807 5807 5807 5807 5806 5806
5783 5784 5785 5786 5787 5788 5789 5790 5791 5791 5792 5793 5794 5794 5795 5796 5796 5797 5797 5797 5797 5797 5796 5796 5796 5796 5797 5796 5796 5797 5797 5798 5799 5799 5800 5800 5800 5801 5801 5801 5801 5801 5801 5802 5802 5802 5802 5803 5802 5802 5802 5802 5802 5803 5803 5803 5804 5804 5805 5805 5806 5806 5806 5807 5807 5808 5808 5808 5808 5807 5807 5807 5807 5808 5808 5808 5808 5808 5807 5806 5806 5807 5807 5806 5806 5806
5784 5785 5786 5787 5788 5788 5789 5790 5791 5791 5792 5793 5794 5795 5795 5796 5796 5796 5797 5797 5797 5797 5796 5796 5795 5795 5796 5796 5796 5796 5797 5797 5798 5798 5799 5799 5800 5800 5801 5801 5801 5801 5801 5801 5801 5801 5801 5801 5801 5801 5801 5801 5801 5801 5802 5802 5803 5803 5804 5804 5805 5805 5805 5806 5806 5807 5807 5807 5807 5807 5807 5807 5807 5807 5808 5808 5808 5807 5807 5806 5806 5807 5806 5806 5806 5805
5786 5786 5787 5787 5788 5789 5789 5790 5790 5791 5792 5793 5794 5794 5795 5796 5796 5796 5797 5797 5796 5796 5795 5795 5795 5795 5795 5796 5796 5796 5796 5797 5797 5797 5798 5798 5799 5800 5800 5801 5801 5801 5800 5800 5800 5800 5800 5800 5800 5800 5800 5800 5800 5800 5800 5801 5802 5802 5803 5803 5804 5804 5804 5805 5805 5806 5806 5806 5806 5806 5806 5806 5806 5807 5807 5807 5807 5807 5806 5806 5806 5806 5806 5805 5805 5805
5786 5786 5787 5788 5788 5789 5788 5789 5790 5791 5791 5792 5793 5794 5795 5795 5795 5796 5797 5796 5795 5795 5795 5795 5795 5795 5795 5795 5795 5795 5796 5796 5796 5797 5797 5797 5798 5799 5799 5800 5800 5800 5800 5799 5799 5799 5799 5799 5799 5799 5799 5799 5799 5799 5799 5800 5800 5801 5801 5802 5802 5803 5803 5804 5804 5805 5805 5806 5806 5805 5805 5806 5806 5806 5807 5807 5807 5806 5806 5805 5805 5805 5805 5804 5804 5804
5786 5786 5787 5787 5788 5788 5788 5789 5790 5791 5792 5792 5793 5794 5794 5794 5795 5796 5796 5795 5795 5795 5795 5795 5795 5795 5795 5795 5794 5795 5795 5795 5795 5796 5796 5797 5797 5798 5798 5799 5799 5799 5799 5799 5798 5798 5798 5798 5798 5798 5798 5798 5798 5798 5798 5798 5799 5800 5800 5801 5801 5802 5802 5803 5803 5804 5804 5805 5805 5805 5805 5805 5805 5806 5806 5806 5806 5806 5805 5805 5805 5805 5804 5804 5804 5803
5787 5787 5787 5788 5788 5788 5788 5789 5790 5791 5792 5792 5792 5793 5793 5793 5794 5795 5795 5795 5795 5795 5794 5795 5795 5795 5795 5794 5794 5794 5795 5795 5795 5795 5795 5796 5796 5796 5797 5797 5797 5798 5798 5798 5797 5797 5797 5797 5797 5797 5797 5797 5797 5797 5797 5797 5798 5799 5799 5800 5800 5801 5801 5802 5802 5802 5803 5804 5804 5804 5804 5804 5804 5805 5805 5805 5805 5805 5805 5805 5804 5804 5803 5803 5803 5802
5787 5787 5787 5788 5788 5788 5789 5789 5790 5790 5791 5791 5791 5792 5793 5793 5794 5794 5794 5795 5795 5795 5795 5794 5795 5795 5794 5794 5793 5794 5794 5794 5794 5794 5794 5795 5795 5795 5795 5796 5796 5796 5796 5796 5796 5796 5796 5796 5796 5796 5796 5796 5796 5796 5796 5796 5797 5797 5798 5799 5799 5800 5800 5801 5801 5802 5802 5803 5803 5803 5803 5803 5804 5804 5804 5804 5804 5804 5804 5804 5804 5803 5802 5802 5802 5801
5786 5787 5787 5787 5788 5788 5788 5789 5789 5790 5790 5790 5791 5792 5792 5793 5793 5793 5794 5795 5795 5795 5795 5794 5795 5795 5794 5793 5793 5793 5793 5793 5793 5793 5793 5794 5794 5794 5794 5795 5795 5795 5795 5795 5795 5795 5795 5795 5795 5795 5794 5794 5794 5794 5795 5795 5795 5796 5797 5797 5798 5799 5799 5800 5800 5801 5801 5802 5802 5802 5802 5803 5803 5803 5803 5803 5803 5803 5803 5803 5803 5802 5801 5801 5800 5800
5786 5786 5787 5787 5787 5787 5788 5788 5789 5789 5789 5790 5791 5791 5792 5792 5793 5793 5794 5794 5795 5795 5794 5794 5795 5795 5793 5792 5793 5792 5792 5792 5792 5792 5793 5793 5793 5793 5794 5794 5794 5794 5794 5794 5794 5794 5794 5794 5794 5793 5793 5793 5793 5793 5793 5794 5794 5795 5795 5796 5797 5797 5798 5798 5799 5800 5800 5801 5801 5801 5802 5802 5802 5802 5802 5802 5802 5802 5802 5802 5801 5801 5800 5800 5799 5799
5785 5786 5787 5787 5787 5787 5787 5788 5788 5788 5789 5789 5790 5791 5791 5792 5792 5792 5793 5794 5794 5795 5794 5794 5795 5794 5792 5792 5792 5791 5791 5791 5791 5791 5792 5792 5792 5792 5793 5793 5793 5793 5793 5792 5792 5792 5792 5792 5792 5792 5792 5792 5792 5792 5792 5792 5793 5793 5794 5794 5795 5796 5796 5797 5798 5798 5799 5800 5800 5800 5801 5801 5801 5801 5801 5801 5801 5801 5801 5801 5800 5800 5799 5798 5798 5797
5785 5786 5787 5786 5787 5787 5787 5788 5788 5788 5788 5789 5789 5790 5791 5791 5791 5792 5793 5793 5793 5794 5793 5793 5793 5793 5791 5791 5791 5790 5790 5790 5790 5790 5790 5790 5791 5791 5792 5792 5792 5791 5791 5791 5791 5791 5791 5791 5791 5790 5790 5790 5790 5790 5790 5791 5791 5792 5792 5793 5794 5794 5795 5795 5796 5797 5798 5798 5799 5799 5800 5800 5800 5800 5800 5800 5800 5800 5800 5799 5799 5798 5798 5797 5796 5796
5785 5786 5786 5786 5786 5786 5786 5787 5787 5787 5788 5788 5789 5789 5790 5790 5791 5791 5792 5792 5792 5792 5792 5792 5792 5791 5790 5790 5789 5789 5789 5789 5788 5788 5788 5788 5789 5789 5790 5790 5790 5790 5789 5789 5789 5789 5789 5789 5789 5789 5789 5789 5789 5789 5789 5789 5789 5790 5791 5791 5792 5792 5793 5794 5795 5795 5796 5797 5797 5798 5798 5799 5799 5799 5799 5799 5798 5798 5798 5798 5797 5797 5796 5796 5795 5795
5784 5785 5785 5786 5786 5786 5786 5786 5787 5787 5787 5787 5788 5788 5788 5789 5789 5790 5790 5791 5791 5791 5791 5791 5791 5790 5789 5789 5788 5788 5788 5787 5787 5787 5786 5786 5786 5787 5787 5788 5789 5789 5788 5788 5787 5787 5787 5787 5787 5787 5787 5787 5787 5787 5787 5787 5788 5788 5789 5789 5790 5791 5791 5792 5793 5794 5794 5795 5796 5796 5797 5797 5797 5797 5797 5797 5797 5797 5797 5796 5796 5796 5795 5795 5794 5793
5783 5784 5785 5785 5786 5786 5786 5786 5786 5786 5786 5786 5787 5787 5787 5787 5788 5788 5788 5789 5789 5790 5790 5790 5790 5789 5787 5788 5787 5787 5786 5786 5786 5785 5785 5785 5785 5785 5785 5785 5786 5787 5787 5786 5786 5786 5785 5785 5785 5785 5785 5785 5785 5785 5785 5785 5786 5786 5787 5788 5788 5789 5790 5790 5791 5792 5792 5793 5794 5795 5795 5796 5796 5796 5796 5796 5796 5795 5795 5795 5795 5794 5794 5793 5793 5792
5781 5782 5783 5784 5785 5786 5786 5785 5784 5784 5785 5786 5786 5786 5786 5786 5787 5787 5787 5787 5787 5788 5788 5788 5788 5787 5786 5786 5786 5785 5785 5785 5784 5784 5784 5783 5783 5783 5783 5783 5784 5784 5784 5785 5784 5784 5784 5783 5783 5783 5783 5783 5783 5783 5783 5783 5784 5784 5785 5786 5787 5787 5788 5788 5789 5790 5791 5791 5792 5793 5793 5794 5794 5794 5794 5794 5794 5794 5794 5793 5793 5793 5792 5792 5791 5790
5780 5780 5781 5782 5783 5783 5783 5783 5783 5784 5785 5785 5785 5785 5785 5785 5786 5785 5785 5786 5785 5786 5786 5786 5786 5786 5785 5785 5785 5784 5783 5783 5782 5782 5782 5782 5782 5781 5781 5781 5781 5781 5781 5782 5782 5782 5782 5781 5781 5781 5781 5781 5781 5781 5781 5781 5781 5782 5782 5783 5784 5785 5786 5787 5787 5788 5789 5789 5790 5791 5792 5792 5792 5792 5792 5792 5792 5792 5792 5792 5791 5791 5790 5790 5789 5789
5778 5779 5779 5780 5780 5780 5781 5782 5783 5784 5784 5784 5784 5785 5784 5784 5784 5784 5784 5784 5784 5784 5785 5784 5784 5784 5784 5783 5783 5782 5782 5781 5780 5780 5780 5780 5780 5779 5779 5779 5779 5779 5779 5779 5780 5780 5780 5779 5779 5778 5778 5778 5778 5778 5778 5779 5779 5780 5780 5781 5782 5783 5784 5784 5785 5786 5787 5787 5788 5789 5790 5790 5790 5790 5790 5790 5790 5790 5790 5789 5789 5789 5788 5788 5787 5787
5776 5777 5778 5778 5778 5779 5780 5781 5782 5783 5783 5784 5783 5783 5783 5783 5783 5783 5782 5782 5781 5782 5782 5782 5782 5782 5782 5781 5781 5780 5780 5779 5778 5778 5778 5778 5778 5777 5776 5776 5776 5777 5777 5777 5777 5777 5777 5777 5777 5776 5776 5776 5776 5776 5776 5776 5777 5777 5778 5779 5780 5781 5781 5782 5783 5784 5785 5785 5786 5787 5787 5788 5788 5788 5788 5788 5788 5788 5787 5787 5787 5786 5786 5786 5785 5784
5774 5775 5776 5777 5777 5778 5779 5779 5780 5781 5782 5782 5782 5782 5781 5781 5781 5781 5780 5780 5780 5780 5780 5780 5781 5781 5779 5779 5778 5778 5778 5777 5777 5776 5776 5776 5775 5775 5774 5774 5774 5774 5774 5774 5775 5774 5774 5774 5774 5774 5773 5773 5773 5773 5774 5774 5774 5775 5776 5777 5778 5778 5779 5780 5781 5782 5783 5783 5784 5785 5785 5786 5786 5786 5786 5786 5786 5785 5785 5785 5784 5784 5784 5783 5783 5782
5773 5774 5775 5775 5776 5776 5777 5778 5779 5780 5780 5780 5780 5779 5779 5779 5779 5779 5779 5778 5778 5778 5778 5778 5779 5778 5777 5776 5776 5776 5776 5776 5775 5775 5774 5774 5773 5772 5772 5772 5772 5771 5771 5771 5772 5772 5771 5771 5771 5771 5771 5771 5770 5771 5771 5771 5772 5772 5773 5774 5775 5776 5777 5778 5779 5780 5780 5781 5782 5783 5783 5783 5784 5784 5784 5784 5783 5783 5783 5782 5782 5781 5781 5780 5780 5779
5771 5772 5773 5774 5774 5774 5775 5777 5777 5778 5779 5778 5777 5777 5777 5777 5776 5776 5777 5776 5776 5776 5776 5776 5776 5775 5774 5774 5774 5774 5774 5774 5773 5773 5772 5772 5772 5771 5770 5770 5770 5769 5769 5769 5769 5769 5768 5768 5768 5768 5768 5768 5768 5768 5768 5769 5769 5770 5771 5771 5772 5773 5775 5776 5777 5777 5778 5779 5780 5781 5781 5781 5781 5781 5781 5781 5781 5781 5780 5780 5779 5779 5778 5778 5777 5777
5769 5771 5772 5773 5773 5773 5773 5775 5775 5776 5776 5775 5774 5775 5775 5774 5774 5774 5775 5774 5774 5774 5774 5774 5773 5772 5771 5771 5771 5771 5771 5771 5771 5770 5770 5770 5769 5768 5768 5768 5768 5767 5767 5766 5766 5766 5766 5765 5765 5765 5765 5765 5765 5765 5766 5766 5767 5768 5768 5769 5770 5772 5773 5773 5774 5775 5776 5777 5778 5778 5778 5779 5779 5779 5779 5779 5779 5779 5778 5778 5777 5777 5776 5775 5775 5774
5768 5769 5769 5771 5772 5771 5772 5773 5773 5773 5773 5773 5773 5773 5773 5773 5773 5773 5773 5772 5772 5771 5771 5771 5770 5769 5769 5769 5769 5769 5769 5769 5768 5768 5768 5768 5767 5766 5766 5766 5766 5765 5765 5764 5764 5764 5764 5763 5763 5763 5763 5763 5762 5763 5764 5764 5765 5766 5767 5768 5769 5770 5771 5771 5772 5773 5773 5774 5775 5776 5776 5777 5777 5777 5777 5777 5777 5777 5776 5776 5775 5774 5774 5773 5772 5772
5766 5766 5767 5769 5770 5770 5770 5771 5771 5771 5771 5771 5772 5772 5771 5771 5771 5771 5771 5770 5769 5768 5768 5768 5768 5767 5766 5766 5766 5766 5766 5766 5766 5766 5765 5765 5764 5764 5764 5764 5764 5763 5763 5762 5762 5762 5762 5761 5761 5761 5761 5760 5760 5761 5761 5762 5763 5764 5766 5767 5767 5768 5768 5769 5770 5770 5771 5772 5773 5773 5774 5774 5774 5774 5774 5775 5774 5774 5774 5773 5773 5772 5771 5770 5770 5769
5764 5764 5765 5766 5767 5768 5769 5769 5769 5769 5769 5769 5769 5769 5769 5769 5770 5770 5769 5768 5767 5766 5766 5766 5766 5765 5764 5764 5764 5764 5764 5764 5764 5763 5763 5763 5762 5762 5762 5762 5761 5761 5761 5760 5760 5760 5760 5759 5759 5759 5759 5758 5758 5759 5759 5760 5761 5762 5764 5764 5765 5765 5766 5767 5767 5768 5768 5769 5770 5770 5771 5771 5771 5772 5772 5772 5772 5771 5771 5770 5770 5769 5769 5768 5767 5766
5762 5762 5762 5763 5764 5766 5766 5767 5767 5767 5766 5766 5767 5767 5767 5767 5768 5768 5767 5766 5765 5765 5765 5765 5764 5763 5762 5762 5762 5762 5762 5762 5761 5761 5761 5761 5760 5760 5760 5760 5759 5759 5759 5759 5759 5758 5758 5757 5757 5757 5757 5757 5757 5757 5758 5758 5759 5761 5762 5762 5763 5763 5764 5764 5765 5765 5766 5766 5767 5768 5768 5769 5769 5769 5769 5769 5769 5768 5768 5767 5767 5766 5766 5765 5764 5764
5759 5760 5760 5761 5762 5763 5764 5764 5765 5765 5764 5763 5764 5764 5764 5764 5765 5766 5765 5764 5764 5764 5763 5763 5763 5762 5762 5761 5761 5760 5760 5760 5760 5759 5758 5758 5758 5758 5758 5758 5758 5758 5757 5757 5757 5756 5756 5756 5756 5756 5755 5755 5755 5755 5756 5757 5758 5759 5759 5760 5761 5761 5761 5762 5762 5762 5763 5764 5764 5765 5766 5766 5766 5766 5766 5766 5766 5765 5765 5764 5764 5763 5763 5762 5761 5760
5757 5757 5758 5759 5760 5761 5761 5761 5762 5762 5761 5760 5761 5761 5761 5762 5762 5763 5763 5762 5761 5761 5761 5761 5761 5761 5760 5760 5759 5758 5759 5759 5757 5756 5756 5756 5756 5757 5757 5756 5756 5756 5756 5756 5755 5755 5755 5754 5754 5754 5754 5754 5754 5754 5754 5755 5756 5756 5757 5758 5758 5758 5759 5759 5759 5759 5760 5761 5762 5762 5763 5763 5762 5762 5762 5763 5762 5762 5762 5761 5761 5760 5759 5759 5758 5757
5754 5755 5756 5756 5757 5758 5758 5758 5759 5758 5758 5758 5758 5759 5759 5759 5760 5760 5760 5759 5759 5759 5759 5759 5759 5759 5759 5758 5757 5757 5757 5757 5755 5754 5754 5755 5755 5755 5755 5755 5755 5755 5755 5754 5754 5754 5753 5753 5753 5753 5752 5752 5752 5753 5753 5754 5754 5755 5755 5756 5756 5756 5756 5756 5756 5757 5758 5759 5759 5760 5759 5759 5759 5759 5759 5759 5759 5759 5759 5758 5758 5757 5756 5755 5754 5754
5752 5753 5753 5754 5755 5755 5755 5756 5756 5755 5754 5755 5755 5755 5756 5756 5756 5756 5757 5757 5757 5757 5757 5757 5757 5757 5757 5756 5755 5755 5755 5755 5754 5754 5754 5755 5755 5755 5754 5754 5754 5754 5754 5753 5753 5753 5753 5752 5752 5752 5752 5751 5751 5752 5752 5752 5753 5753 5753 5754 5754 5754 5754 5754 5754 5755 5756 5756 5757 5757 5757 5757 5757 5756 5756 5756 5756 5756 5755 5755 5755 5754 5753 5752 5751 5751
5750 5750 5751 5751 5752 5752 5753 5753 5753 5751 5752 5752 5752 5752 5752 5753 5753 5754 5754 5754 5754 5754 5754 5755 5755 5755 5755 5754 5753 5753 5753 5753 5753 5753 5754 5754 5754 5754 5753 5753 5753 5753 5753 5753 5752 5752 5752 5752 5752 5751 5751 5751 5751 5750 5751 5751 5751 5751 5752 5752 5752 5751 5751 5752 5753 5753 5754 5754 5754 5754 5754 5754 5754 5754 5754 5754 5753 5753 5752 5752 5752 5751 5750 5749 5749 5748
5748 5748 5748 5749 5749 5749 5750 5750 5749 5748 5748 5749 5749 5749 5750 5750 5750 5751 5751 5751 5751 5752 5752 5752 5752 5752 5752 5752 5752 5752 5751 5751 5752 5751 5752 5752 5753 5753 5753 5752 5752 5751 5751 5751 5751 5751 5751 5751 5751 5750 5750 5750 5750 5749 5749 5749 5750 5750 5750 5750 5749 5749 5750 5750 5751 5751 5751 5751 5751 5751 5751 5751 5751 5751 5751 5751 5750 5750 5750 5749 5749 5748 5747 5746 5745 5744
5745 5745 5745 5746 5746 5746 5746 5746 5746 5745 5745 5746 5746 5746 5747 5747 5748 5749 5749 5749 5749 5749 5749 5750 5750 5750 5750 5749 5750 5750 5750 5750 5750 5750 5750 5750 5750 5751 5751 5751 5750 5750 5750 5750 5750 5750 5750 5750 5749 5749 5749 5749 5749 5748 5748 5748 5748 5748 5748 5748 5748 5748 5749 5749 5749 5749 5749 5749 5749 5749 5749 5749 5749 5748 5748 5748 5747 5747 5746 5746 5745 5745 5744 5743 5742 5741
5743 5743 5743 5743 5743 5744 5743 5743 5743 5743 5743 5744 5744 5744 5744 5744 5745 5746 5746 5746 5746 5747 5747 5747 5747 5747 5747 5747 5747 5747 5748 5748 5748 5748 5747 5747 5748 5748 5748 5748 5748 5748 5748 5748 5748 5747 5747 5747 5747 5747 5747 5747 5747 5747 5747 5747 5747 5747 5746 5746 5746 5747 5747 5747 5747 5747 5747 5747 5746 5746 5746 5746 5746 5745 5745 5744 5744 5743 5743 5742 5741 5741 5740 5739 5738 5737
5740 5740 5741 5741 5741 5741 5741 5740 5740 5740 5741 5741 5741 5741 5741 5741 5741 5742 5743 5744 5744 5744 5744 5744 5745 5745 5745 5744 5744 5745 5745 5745 5745 5745 5745 5745 5745 5745 5745 5745 5746 5746 5746 5746 5745 5745 5745 5745 5745 5745 5745 5744 5744 5744 5744 5744 5744 5744 5744 5744 5744 5744 5744 5744 5744 5744 5744 5744 5744 5743 5743 5743 5742 5741 5741 5740 5740 5739 5739 5738 5738 5737 5736 5735 5735 5734
5737 5738 5738 5738 5738 5738 5738 5737 5737 5737 5737 5738 5737 5737 5737 5738 5739 5740 5741 5741 5741 5741 5741 5741 5742 5742 5741 5741 5741 5741 5742 5742 5742 5742 5742 5742 5742 5742 5742 5742 5742 5743 5743 5743 5743 5742 5742 5742 5742 5742 5742 5741 5741 5741 5741 5741 5741 5741 5741 5741 5741 5741 5741 5741 5740 5740 5741 5741 5741 5740 5740 5739 5738 5738 5737 5736 5736 5736 5735 5735 5734 5733 5733 5732 5731 5730
5734 5735 5735 5735 5735 5735 5734 5734 5734 5734 5734 5734 5733 5733 5734 5735 5735 5736 5737 5738 5738 5738 5738 5738 5738 5738 5738 5738 5738 5738 5738 5738 5739 5739 5739 5739 5739 5738 5739 5739 5739 5739 5739 5739 5739 5739 5739 5739 5739 5738 5738 5738 5738 5738 5737 5737 5737 5737 5737 5737 5737 5737 5737 5737 5737 5737 5737 5737 5737 5737 5736 5736 5735 5735 5734 5734 5733 5733 5732 5731 5731 5730 5729 5728 5727 5725
5732 5732 5732 5732 5732 5732 5731 5731 5731 5730 5730 5729 5729 5730 5731 5731 5732 5733 5733 5734 5734 5734 5734 5734 5734 5734 5734 5734 5735 5735 5734 5734 5735 5735 5735 5735 5735 5735 5735 5735 5735 5736 5736 5736 5736 5736 5736 5736 5735 5735 5735 5735 5734 5734 5734 5734 5734 5734 5734 5734 5734 5734 5734 5734 5734 5734 5734 5734 5733 5733 5733 5732 5732 5732 5731 5731 5730 5729 5728 5727 5726 5725 5724 5723 5722 5721
5728 5728 5728 5729 5729 5728 5728 5728 5727 5727 5726 5725 5726 5727 5727 5728 5729 5729 5729 5729 5730 5730 5730 5730 5730 5730 5730 5730 5731 5731 5731 5731 5731 5731 5731 5731 5731 5731 5731 5731 5732 5732 5732 5733 5733 5733 5733 5732 5732 5732 5732 5731 5731 5731 5730 5730 5730 5730 5730 5730 5730 5730 5730 5730 5730 5730 5730 5729 5729 5729 5728 5728 5727 5727 5727 5726 5725 5724 5723 5722 5721 5720 5719 5718 5717 5716
5724 5724 5724 5725 5724 5724 5724 5724 5724 5724 5723 5722 5723 5723 5724 5724 5724 5725 5725 5725 5725 5725 5726 5726 5726 5726 5727 5727 5727 5728 5727 5727 5727 5727 5727 5727 5727 5726 5726 5727 5727 5728 5728 5728 5729 5729 5729 5729 5729 5729 5729 5728 5728 5727 5727 5727 5727 5726 5726 5726 5726 5726 5726 5726 5726 5726 5725 5725 5724 5724 5723 5723 5722 5722 5721 5720 5720 5719 5718 5717 5716 5715 5714 5713 5712 5711